Location: Cambridge (historical)
(38.6883°N, 119.0140°W)
Time: 17:29:02
(UTC+00:00)

SAR-Lupe-4 - Pass Details

Date: 29 October 2020
Orbit: 481 x 484 km, 98.2° (Epoch: 18 November)

Event Time Altitude Azimuth Distance (km) Brightness Sun altitude
Rises 13:30:33 0° 188° (S) 2,532 7.2 -10.3°
Reaches altitude 10° 13:32:47 10° 200° (SSW) 1,657 6.2 -9.9°
Maximum altitude 13:35:56 29° 262° (W) 904 4.4 -9.3°
Drops below altitude 10° 13:39:06 10° 324° (NW) 1,667 5.9 -8.7°
Sets 13:41:22 0° 336° (NNW) 2,552 6.9 -8.2°
